Regional Weather Roundup
Issued by NWS Sterling, VA

Home | Current Version | Previous Version | Text Only | Print | Product List | Glossary On
Versions: 1 2 3 4 5 6 7 8 9 10 11 12 13 14 15 16 17 18 19 20 21 22 23 24 25 26 27
000
ASUS41 KLWX 201311
RWRLWX

REGIONAL WEATHER ROUNDUP
NATIONAL WEATHER SERVICE BALTIMORE MD/WASHINGTON DC
900 AM EDT WED SEP 20 2017

Note: "FAIR" indicates few or no clouds below 12,000 feet
with no significant weather and/or obstructions to visibility.
 TC=TEMPERATURE CELSIUS

 * =Non NWS site. Station does not report precipitation (e.g. rain,
    snow, etc.), thunder, or fog.

DCZ001-MDZ009-015-VAZ040>042-051-053>054-201400-
WASHINGTON METRO

CITY           SKY/WX    TMP DP  RH WIND       PRES   REMARKS
WASHINGTON NAT CLOUDY    73  64  73 NW8       29.97R
DULLES         MOSUNNY   68  64  87 NW7       29.99R
ANDREWS AFB    MOSUNNY   73  62  69 NW10      29.96R
FT BELVOIR     CLOUDY    71  63  75 NW7       29.98R
QUANTICO       PTSUNNY   71  65  81 NW8       29.99R
COLLEGE PARK*  CLOUDY    71  62  73 NW6       29.96R
LEESBURG*      SUNNY     72  66  83 N6        30.01R
MANASSAS*      SUNNY     68  64  87 CALM      30.00R
GAITHERSBURG*  PTSUNNY   68  64  87 NW6       30.00R

$$

MDZ006>007-011-014-201400-
BALTIMORE METRO

CITY           SKY/WX    TMP DP  RH WIND       PRES   REMARKS
BWI AIRPORT    CLOUDY    72  65  78 NW6       29.95R
MD SCIENCE CTR   N/A     76  63  64 MISG      29.95R
MARTIN STATE   PTSUNNY   75  66  73 NW9       29.95R
ANNAPOLIS      CLOUDY    76  68  76 NW6       29.95R
FORT MEADE*    CLOUDY    70  63  78 CALM      29.98R

$$

MDZ012-015-019>023-201400-
MARYLAND EASTERN SHORE

CITY           SKY/WX    TMP DP  RH WIND       PRES   REMARKS
OCEAN CITY     PTSUNNY   71  66  84 NW14      29.88R
SALISBURY      SUNNY     74  66  76 NW9       29.91R
CAMBRIDGE*     SUNNY     75  66  73 NW8       29.93R
EASTON*        MOSUNNY   73  64  73 N9        29.96R

$$

MDZ017>025-201400-
SOUTHERN MARYLAND

CITY           SKY/WX    TMP DP  RH WIND       PRES   REMARKS
PATUXENT RIVER PTSUNNY   75  67  76 NW12      29.94R
ST INIGOES     CLOUDY    74  66  76 W8        29.94R
LEONARDTOWN*   CLOUDY    72  64  78 NW5       29.97R

$$

MDZ003>005-201400-
NORTH CENTRAL MARYLAND

CITY           SKY/WX    TMP DP  RH WIND       PRES   REMARKS
FREDERICK*     SUNNY     72  70  94 CALM      30.02R
HAGERSTOWN APT FOG       62  61  96 SE3       30.02R VSB 1/2
WESTMINSTER*   CLOUDY    72  63  73 N5        29.99R

$$

MDZ501>502-201400-
WESTERN MARYLAND

CITY           SKY/WX    TMP DP  RH WIND       PRES   REMARKS
OAKLAND*       SUNNY     63  59  88 W3        30.09R
CUMBERLAND*    MOSUNNY   63  63 100 CALM      30.09R

$$

VAZ025>031-201400-
SHENANDOAH VALLEY

CITY           SKY/WX    TMP DP  RH WIND       PRES   REMARKS
WINCHESTER*    SUNNY     64  61  88 CALM      30.02R
FRONT ROYAL*   SUNNY     64  63  94 S6        30.01S
LURAY*         FOG       61  61 100 CALM      30.04S VSB 1/2
NEW MARKET*    MOSUNNY   64  61  89 CALM      30.04S
STAUNTON*      MOSUNNY   61  60  96 CALM      30.07S
WAYNESBORO*    SUNNY     64  64  97 CALM      30.06R

$$

WVZ021-048>050-054>055-201400-
EASTERN WEST VIRGINIA PANHANDLE

CITY           SKY/WX    TMP DP  RH WIND       PRES   REMARKS
MARTINSBURG    SUNNY     63  60  90 CALM      30.01R
PETERSBURG*    FOG       61  61 100 CALM      30.06R VSB 1/2

$$

VAZ036>039-050-201400-
CENTRAL FOOTHILLS

CITY           SKY/WX    TMP DP  RH WIND       PRES   REMARKS
CHARLOTTESVILL SUNNY     68  64  87 SW3       30.01R
CULPEPER*      SUNNY     71  65  81 CALM      30.01R
ORANGE*        SUNNY     70  64  83 CALM      30.00R
GORDONSVILLE*  SUNNY     70  67  88 CALM      29.99S
WARRENTON*     SUNNY     70  62  76 CALM      29.99R

$$

VAZ055>057-201400-
NORTH AND CENTRAL PIEDMONT

CITY           SKY/WX    TMP DP  RH WIND       PRES   REMARKS
FREDERICKSBRG* SUNNY     71  64  79 NW6       29.97R
STAFFORD*      SUNNY     70  67  90 NW6       30.02R

$$

NCZ024-NYZ072-PAZ021-071-VAZ022-071-201400-
OTHER REGIONAL OBSERVATIONS

CITY           SKY/WX    TMP DP  RH WIND       PRES   REMARKS
NEW YORK CITY  CLOUDY    73  64  73 N9G17     29.90R
PHILADELPHIA   PTSUNNY   72  62  71 N13       29.91R
PITTSBURGH     PTSUNNY   67  64  90 CALM      30.05R
ROANOKE        MOSUNNY   70  65  84 NE5       30.08R
RICHMOND       MOSUNNY   74  64  71 NW6       29.98R
RALEIGH        MOSUNNY   71  67  87 SW7       30.03R

$$

ANZ530>537-201400-
MARINE OBSERVATIONS

STATION/POSITION TIME  TEMP    WIND        PRES
                       AIR SEA DIR/SP/G
                 (UTC) (F)     (DEG/KT/KT) (MB)
THOMAS PT LIGHT  1300   72 75  310/  8/  9   N/A
BALT KEY BRIDGE  1248   74     330/ 11/ 14 1013.8R
COVE POINT       1248   73     330/ 13/ 16 1014.4R
LEWISETTA        1248   74 75  330/ 10/ 13 1014.1R
SOLOMONS ISLAND  1248   73 76  320/  8/ 14 1013.5R
PINEY POINT      1242          340/ 12/ 13   N/A

$$





USA.gov is the U.S. government's official web portal to all federal, state and local government web resources and services.